Find Kuiper-00250

NORAD ID: 67155 Int'l Des: 2025-301 Owner: KUIP Country: US Constellation: amazon-leo operational
LEOCIRCULAR

实时位置

正在加载3D地球...

关于 Kuiper-00250

正在加载描述...

即将过境

Passes for default location (London). Set your location on the main map for personalized predictions.

高度历史

Loading altitude history...

两行轨道根数

1 67155U 25301Y 26125.14235189 .00002543 00000-0 36242-3 0 9998
2 67155 51.8979 180.9700 0000436 60.3731 299.7274 14.79939566 22051
Epoch: May 5, 2026 • Age: 11 hours

当前状态

高度 643.3 km
速度 7.54 km/s
星下点 -41.51°S, 54.24°E
发射日期 Dec 16, 2025
运行时间 0.3 years
类型 internet

技术详情

分类 Payload
质量 490.00 kg
干质量 490.00 kg
总质量 490.00 kg
长度 1.80 m
直径 0.70 m
跨度 5.00 m
形状 Box + 2 pan
制造商 KUIP
平台类型 Kuiper
阶段状态 In Orbit
所有者/国家 KUIP/US

Most Searched